| ตารางข้อมูล | TH20402 | TH4529A | TH4529D | TH814 | ค้นข้อมูล1 | ค้นข้อมูล2 | ค่าสูงสุด-ต่ำสุด |  

Select Sensor -->| 20402 | 4529A | 4529D | 814 | 824 | 834 | 844 | หน้าจอย่อ | 4529 |
Data of room  814

IDRoomDate  Temp  Humidity
 146988  814  2022-08-18 08:48:28  30.1  86.1 
 146984  814  2022-08-18 08:28:25  30.1  86.3 
 146980  814  2022-08-18 08:08:23  30.1  86.8 
 146976  814  2022-08-18 07:48:20  30.1  86.3 
 146972  814  2022-08-18 07:28:18  30.1  86.2 
 146968  814  2022-08-18 07:08:15  30.1  86.1 
 146964  814  2022-08-18 06:48:13  30.1  86.1 
 146960  814  2022-08-18 06:28:11  30.1  86.1 
 146956  814  2022-08-18 06:08:08  30.1  86.2 
 146952  814  2022-08-18 05:48:06  30.1  86.1 
 146948  814  2022-08-18 05:28:03  30.2  86.1 
 146944  814  2022-08-18 05:08:01  30.1  86.0 
 146940  814  2022-08-18 04:47:59  30.2  86.0 
 146936  814  2022-08-18 04:27:56  30.2  86.1 
 146932  814  2022-08-18 04:07:54  30.2  85.9 
 146928  814  2022-08-18 03:47:51  30.1  85.9 
 146924  814  2022-08-18 03:27:49  30.2  85.5 
 146920  814  2022-08-18 03:07:46  30.2  85.7 
 146916  814  2022-08-18 02:47:44  30.2  85.6 
 146912  814  2022-08-18 02:27:41  30.2  85.8 
 146908  814  2022-08-18 02:07:39  30.3  85.9 
 146904  814  2022-08-18 01:47:37  30.2  86.0 
 146900  814  2022-08-18 01:27:34  30.2  85.8 
 146896  814  2022-08-18 01:07:32  30.2  85.9 
 146892  814  2022-08-18 00:47:29  30.3  85.7 
 146888  814  2022-08-18 00:27:27  30.3  85.6 
 146884  814  2022-08-18 00:07:25  30.3  85.5 
 146880  814  2022-08-17 23:47:22  30.3  85.5 
 146876  814  2022-08-17 23:27:20  30.3  85.3 
 146872  814  2022-08-17 23:07:17  30.3  85.2 
 146868  814  2022-08-17 22:47:15  30.3  85.2 
 146864  814  2022-08-17 22:27:12  30.3  84.5 
 146860  814  2022-08-17 22:07:10  30.3  84.8 
 146856  814  2022-08-17 21:47:07  30.3  85.1 
 146852  814  2022-08-17 21:27:05  30.3  85.2 
 146848  814  2022-08-17 21:07:03  30.3  84.9 
 146844  814  2022-08-17 20:47:00  30.4  84.7 
 146840  814  2022-08-17 20:26:58  30.3  84.8 
 146836  814  2022-08-17 20:06:55  30.3  84.6 
 146832  814  2022-08-17 19:46:53  30.3  84.5 
 146828  814  2022-08-17 19:26:50  30.3  84.5 
 146824  814  2022-08-17 19:06:48  30.3  84.2 
 146820  814  2022-08-17 18:46:45  30.3  84.0 
 146816  814  2022-08-17 18:26:43  30.3  83.8 
 146812  814  2022-08-17 18:06:40  30.4  83.2 
 146808  814  2022-08-17 17:46:38  30.3  82.9 
 146804  814  2022-08-17 17:26:36  30.2  83.2 
 146800  814  2022-08-17 17:06:33  30.3  83.7 
 146796  814  2022-08-17 16:46:31  30.3  83.9 
 146792  814  2022-08-17 16:26:28  30.3  83.8 
 146788  814  2022-08-17 16:06:26  30.1  84.2 
 146784  814  2022-08-17 15:46:23  30.0  84.6 
 146780  814  2022-08-17 15:26:21  30.0  84.3 
 146776  814  2022-08-17 15:06:19  29.9  83.9 
 146772  814  2022-08-17 14:46:16  29.7  84.1 
 146768  814  2022-08-17 14:26:14  29.8  84.3 
 146764  814  2022-08-17 14:06:11  29.7  84.3 
 146760  814  2022-08-17 13:46:09  29.7  84.8 
 146756  814  2022-08-17 13:26:06  29.6  84.7 
 146752  814  2022-08-17 13:06:04  29.6  84.8 
 146748  814  2022-08-17 12:46:02  29.6  85.0 
 146744  814  2022-08-17 12:25:59  29.5  85.1 
 146740  814  2022-08-17 12:05:57  29.5  84.8 
 146736  814  2022-08-17 11:45:54  29.5  85.1 
 146732  814  2022-08-17 11:25:52  29.5  85.4 
 146728  814  2022-08-17 11:05:49  29.5  85.7 
 146724  814  2022-08-17 10:45:47  29.5  85.7 
 146720  814  2022-08-17 10:25:44  29.5  85.9 
 146716  814  2022-08-17 10:05:42  29.6  86.3 
 146712  814  2022-08-17 09:45:40  29.5  86.1 
 146708  814  2022-08-17 09:25:37  29.5  86.7 
 146704  814  2022-08-17 09:05:35  29.4  87.0 

Data every 20 minute.


Data of room  814


Data every 20 minute.

  Show Graph